Theta_e
296 298 301 309 317 321 325 329 332 335 336 341 340 340 340 339 339 339 336 336 338 340 342 343 342 341 342 339 337 336 336 338 338 340 340 339 342 344 344 342 342 335 329
296 296 299 310 314 318 321 326 329 330 333 335 337 339 339 339 339 339 339 339 339 339 340 341 341 338 337 337 337 337 336 338 339 340 340 339 340 339 339 341 341 339 331
295 294 303 309 312 316 318 321 325 326 328 331 334 335 337 339 339 339 338 337 336 333 334 335 335 337 337 337 336 336 337 335 337 342 343 341 338 337 338 339 338 341 337
294 293 300 307 310 313 315 317 320 323 325 328 330 334 335 337 339 338 337 337 335 334 333 332 334 336 336 337 337 336 336 335 334 336 338 340 340 337 338 338 336 339 340
291 291 295 303 306 310 312 314 316 318 321 327 329 331 331 333 335 336 335 334 335 334 334 333 332 334 336 336 336 336 335 335 335 334 334 341 341 339 337 338 334 331 338
289 289 290 298 302 305 308 311 312 314 315 321 327 329 332 333 332 334 335 335 333 333 332 332 333 332 332 335 336 336 334 334 334 334 339 339 341 340 337 337 333 328 332
287 288 288 292 296 300 304 306 307 309 311 312 317 322 330 331 333 333 333 334 335 334 333 331 331 332 332 332 334 335 335 334 333 333 336 337 339 340 338 336 336 337 332
286 287 288 289 290 294 298 300 302 304 306 307 313 318 326 329 329 331 332 333 333 335 335 332 330 331 332 332 332 332 334 334 333 332 333 336 339 339 337 337 336 334 339
286 286 287 289 290 291 292 295 298 299 300 301 307 311 318 324 326 327 327 329 332 333 333 334 332 330 331 332 332 332 333 334 334 332 332 337 338 338 337 336 335 336 334
285 285 286 288 289 290 290 291 292 294 295 296 298 301 308 312 319 321 325 326 329 332 333 333 333 333 331 330 331 332 332 333 333 333 332 334 338 338 336 337 336 336 333
284 284 285 287 287 288 289 290 291 291 292 294 295 297 299 301 305 310 313 321 326 328 330 331 333 333 334 334 332 332 335 335 334 333 336 336 337 337 336 337 337 335 336
283 283 283 285 286 287 287 288 289 290 290 290 291 292 293 295 297 299 306 310 316 321 323 328 329 329 330 332 333 332 334 335 335 334 336 336 335 336 337 337 336 335 335
281 282 282 284 284 285 286 286 287 287 288 289 289 289 290 291 292 295 297 300 305 310 314 320 323 325 327 327 330 333 334 333 333 335 336 336 335 335 336 335 335 336 335
281 281 282 282 283 284 284 285 285 285 286 287 287 286 287 288 289 290 291 293 296 298 303 308 313 317 322 325 327 329 332 333 333 333 334 334 335 335 335 335 335 335 335
280 280 281 281 282 282 283 283 283 283 284 285 284 284 286 285 286 287 288 290 291 293 296 300 303 309 316 320 324 327 327 331 332 331 331 333 333 332 333 333 333 335 335
279 279 280 280 281 282 282 282 282 282 283 283 282 283 284 284 285 286 286 286 288 290 292 293 295 300 307 311 318 323 326 327 329 331 330 329 331 331 332 330 332 333 335
279 279 279 280 280 280 281 281 282 281 282 282 281 282 282 282 283 284 284 285 285 287 289 290 293 295 298 305 310 316 322 327 327 329 330 329 330 330 330 329 329 332 333
279 278 278 278 279 279 280 280 280 280 281 280 280 281 281 281 282 283 282 283 284 284 285 287 287 290 293 296 303 310 315 320 327 328 329 329 328 327 328 327 328 330 332
278 278 278 279 280 280 281 281 280 280 281 280 280 280 280 281 281 281 281 282 283 283 283 284 286 287 289 293 295 303 310 315 322 327 326 325 325 325 324 324 327 329 332
278 278 278 278 278 277 278 278 278 278 278 278 278 278 278 279 279 279 280 281 281 281 282 282 283 285 288 290 292 300 306 312 318 322 324 323 323 323 322 322 325 326 331
278 278 276 276 276 276 277 276 276 276 276 276 276 277 278 278 279 279 279 279 280 280 280 280 281 282 285 286 290 294 302 310 315 319 323 323 322 321 321 322 323 325 329
277 276 276 275 275 275 275 274 274 275 275 275 275 276 276 277 277 278 278 278 278 279 279 279 279 281 282 284 288 291 302 309 307 310 320 322 321 321 321 320 321 323 327
277 276 275 274 274 274 273 274 275 275 276 275 276 276 275 276 277 277 277 277 277 278 278 277 278 278 280 282 283 287 297 301 294 306 307 312 316 318 319 319 320 321 327
276 275 275 274 273 273 273 274 273 272 272 272 272 273 273 273 275 276 276 276 277 277 277 276 276 277 278 280 281 286 287 287 294 296 299 301 309 312 316 318 320 320 325
276 275 275 274 273 273 273 273 273 273 272 273 273 273 274 273 274 275 275 276 276 276 277 276 275 276 277 278 280 281 283 286 289 292 296 302 299 305 310 316 316 319 322
276 275 275 274 273 273 273 273 273 273 272 272 272 272 272 273 273 274 275 276 276 276 277 277 275 275 276 277 278 280 281 284 287 289 291 293 295 299 307 312 315 318 321
Wind_Speed
27 33 30 33 30 30 28 26 24 22 21 24 19 18 17 17 16 17 17 17 17 16 15 14 13 13 12 11 10 10 10 11 11 10 10 10 11 11 10 10 8 10 10
28 29 28 30 29 28 27 27 26 23 22 19 21 20 17 17 15 15 15 14 14 15 15 13 13 12 12 10 9 8 7 8 9 9 9 9 5 6 6 6 5 7 7
26 25 31 28 27 28 28 27 26 25 24 23 18 21 18 18 17 17 15 15 15 13 11 11 11 11 11 11 10 8 7 6 7 6 7 6 4 2 4 6 3 4 4
21 20 28 25 26 27 27 28 27 27 26 24 23 23 21 17 19 16 15 15 14 14 12 11 10 8 9 8 8 7 6 4 3 2 3 6 2 3 2 2 2 6 5
18 19 23 25 25 26 26 27 28 27 25 23 22 20 19 20 17 16 16 15 13 13 13 10 9 8 8 8 8 7 6 5 4 2 3 4 4 4 4 2 2 6 9
19 20 20 23 23 25 26 27 27 27 26 23 19 20 19 17 14 13 14 14 14 13 13 12 9 8 7 7 7 7 6 5 5 3 1 6 2 4 5 4 2 6 10
20 23 23 22 23 24 27 27 28 27 27 26 25 21 15 16 16 13 10 11 14 14 14 13 11 9 8 7 7 7 7 5 5 5 4 5 1 4 5 6 5 7 10
22 24 26 25 24 23 26 26 28 28 27 26 24 23 18 14 16 16 12 10 10 12 13 15 13 11 10 9 9 8 8 8 6 6 7 6 3 5 6 7 9 11 9
23 26 28 27 26 27 24 26 26 28 28 27 24 22 19 16 16 14 15 13 11 12 12 13 14 13 12 10 10 10 9 9 9 7 7 5 2 7 9 7 10 12 12
24 28 29 29 27 27 27 26 26 27 28 28 27 27 23 20 17 19 15 15 14 9 10 10 12 13 13 12 12 11 10 9 9 8 7 8 6 6 9 8 11 14 15
25 29 30 29 29 29 30 29 28 29 28 28 28 28 26 26 24 21 22 16 12 10 10 11 9 9 12 13 12 12 11 10 9 8 7 7 7 8 8 9 11 14 16
26 27 30 28 30 30 30 30 30 30 30 30 30 30 29 28 28 27 24 23 20 18 15 12 11 12 12 13 13 12 11 11 11 10 9 8 11 10 9 9 10 14 17
21 23 28 27 28 29 30 30 31 32 31 31 32 34 32 30 30 29 29 28 27 24 23 20 18 18 16 16 15 14 13 13 13 11 11 11 12 13 13 12 12 14 16
20 21 23 25 26 27 27 29 29 30 29 30 31 34 34 35 34 33 31 31 30 31 29 26 24 22 20 16 15 17 15 14 13 11 11 15 15 13 15 15 13 15 17
18 19 21 23 24 26 27 27 28 27 27 27 29 32 32 34 34 33 33 31 31 30 30 29 27 26 24 22 18 19 20 17 14 17 14 14 13 14 17 16 15 16 17
14 17 17 21 23 24 24 25 26 26 25 26 29 30 30 31 31 32 32 33 33 31 30 30 30 29 27 27 24 19 22 22 20 18 19 22 19 20 21 16 18 17 18
12 15 18 19 20 23 22 23 24 24 22 25 27 27 28 30 30 30 31 33 34 33 31 30 30 29 28 28 28 27 21 23 24 22 21 20 21 20 21 22 20 20 21
9 12 14 17 19 22 21 21 24 24 23 27 27 27 28 28 27 29 31 31 32 33 33 34 33 33 32 31 32 30 28 23 27 25 25 22 22 25 23 23 22 23 21
8 11 14 17 19 20 19 16 19 19 20 24 24 26 26 26 27 29 29 29 30 33 34 35 34 32 35 33 30 34 33 31 28 28 27 29 29 27 25 26 24 21 21
8 11 13 15 16 18 18 17 17 17 21 24 25 26 27 27 28 27 27 29 30 32 34 34 32 32 29 29 38 30 28 30 32 33 33 32 34 32 29 28 27 22 24
6 8 11 13 16 18 22 23 18 19 22 24 26 26 27 26 27 27 28 29 30 32 32 30 26 27 24 29 22 29 33 32 30 35 35 34 34 34 31 30 27 25 27
3 5 8 11 13 16 17 17 14 15 16 22 26 26 27 27 27 26 27 28 30 31 31 31 23 26 17 26 13 19 6 15 10 24 36 36 35 35 35 34 31 27 27
2 1 4 7 9 11 13 14 16 14 18 25 27 26 25 24 23 23 24 27 28 28 28 28 20 20 19 18 18 7 5 4 24 14 29 29 38 36 35 34 34 29 26
9 4 2 5 7 9 11 14 18 19 18 20 23 25 24 24 23 22 23 25 27 28 28 27 19 17 15 20 18 7 13 20 4 8 23 35 37 37 36 34 34 30 28
11 5 1 3 5 8 10 12 14 16 16 17 20 22 24 23 23 23 23 25 27 27 27 26 21 19 16 17 17 19 19 17 20 13 11 15 36 31 37 34 35 34 34
11 6 2 1 4 6 7 9 12 13 14 16 18 21 24 25 25 24 24 25 26 27 28 28 25 18 19 18 20 18 18 12 16 14 8 22 23 37 37 35 30 33 34
Wind_Direction
340 354 354 358 2 9 18 27 34 36 40 35 39 42 42 41 42 38 38 35 32 29 32 30 29 34 31 33 36 39 46 53 54 65 71 84 89 92 82 89 98 96 99
341 356 357 2 5 10 18 28 34 39 39 41 40 43 39 39 39 38 39 37 36 31 29 27 27 27 31 34 33 30 37 51 57 66 72 85 81 82 76 86 96 104 104
345 353 19 5 8 13 19 26 33 36 37 39 39 37 43 37 34 36 34 31 30 30 33 31 24 19 21 27 29 30 27 33 45 56 59 66 81 46 82 116 96 135 123
345 1 22 8 12 18 21 26 29 32 34 35 35 33 37 39 35 33 29 29 30 24 21 20 24 17 12 19 23 22 24 29 25 359 20 14 22 313 310 123 176 192 171
3 8 18 13 16 21 23 28 30 31 31 32 34 37 33 33 35 41 34 26 24 25 19 16 11 12 7 1 4 3 2 4 10 354 345 28 330 248 279 280 212 195 185
16 17 17 15 19 21 24 28 31 32 31 35 29 32 32 30 30 36 41 33 20 21 7 5 1 357 356 353 347 344 341 339 329 336 340 341 286 208 269 254 246 168 179
23 26 25 18 21 24 25 27 28 30 32 31 31 32 29 29 25 24 26 37 30 11 5 5 1 350 343 335 325 325 323 317 309 304 295 321 311 242 270 276 242 182 173
31 32 33 33 26 27 28 28 27 29 30 29 31 35 32 21 24 21 17 17 27 27 12 359 357 353 342 331 322 312 308 306 302 298 292 298 283 250 287 273 237 212 206
36 36 36 38 40 42 31 28 29 29 29 30 34 34 36 35 30 21 15 15 24 7 7 1 349 343 340 333 322 311 304 299 299 294 285 274 269 247 272 274 244 229 221
39 38 38 38 40 42 38 34 34 31 30 31 32 31 27 24 26 21 17 12 13 2 6 355 3 341 335 329 324 313 303 295 294 292 277 255 261 263 258 265 256 234 222
42 40 39 39 41 43 41 41 39 37 35 31 29 28 25 22 20 18 15 12 2 8 1 351 359 6 343 336 330 320 306 310 296 284 268 259 254 274 261 257 256 238 229
34 35 36 38 40 43 43 41 40 40 38 32 27 24 23 21 21 17 14 10 6 2 4 351 343 345 341 337 328 311 313 306 311 286 280 256 265 266 267 258 253 243 230
32 34 33 35 39 40 40 39 40 40 35 33 29 24 22 20 16 15 12 10 4 2 356 349 347 341 335 331 324 329 297 298 291 290 279 273 270 271 273 266 251 239 235
34 32 32 33 37 41 40 40 38 38 33 34 28 22 21 20 18 15 12 10 7 3 357 354 348 341 330 320 319 314 305 289 285 275 281 274 277 274 275 268 251 235 232
35 31 32 32 36 38 39 39 38 38 35 35 27 23 22 18 16 14 13 10 5 2 1 354 348 342 333 328 315 312 303 292 286 272 271 268 271 284 283 280 259 240 233
35 32 32 32 33 36 39 38 38 37 35 37 26 23 23 18 15 13 11 8 6 3 0 357 350 342 334 330 318 309 296 290 280 275 267 265 267 273 280 284 266 254 240
36 31 33 31 31 34 36 38 40 37 37 35 27 24 23 20 17 14 10 6 4 3 359 353 349 344 338 330 325 313 303 290 279 267 265 259 262 264 275 283 278 262 249
39 37 35 33 33 32 32 35 35 32 35 29 25 24 23 21 17 14 10 7 2 0 359 356 352 346 342 337 328 315 308 294 274 268 263 261 260 263 272 278 277 268 257
43 37 33 29 27 27 29 33 34 31 35 29 26 23 21 19 16 15 10 7 3 359 358 355 352 352 345 341 332 320 308 291 272 262 260 265 261 269 274 274 273 269 258
40 34 29 26 24 23 24 29 30 31 31 28 27 24 21 18 16 13 10 9 4 -0 358 356 353 349 352 342 332 323 314 297 274 265 265 262 262 264 269 269 267 262 252
37 30 28 27 25 20 19 18 16 18 21 20 21 22 20 16 14 11 8 7 4 0 358 358 352 350 348 347 350 333 317 306 279 264 259 259 259 259 260 262 262 256 255
32 26 28 31 27 25 24 22 17 15 15 15 13 17 15 13 12 9 7 6 3 358 358 358 359 351 339 357 345 313 328 325 350 316 267 259 255 252 251 254 258 254 253
213 139 51 46 40 32 27 25 27 27 22 10 10 10 11 11 8 7 7 3 1 359 355 356 353 352 337 339 346 311 321 328 342 302 321 273 260 253 248 245 250 245 240
209 180 52 53 53 42 33 32 33 32 21 5 2 2 4 8 8 6 4 2 0 357 353 347 341 342 337 325 339 331 299 304 316 311 314 314 301 264 251 242 242 243 232
201 187 61 45 53 49 39 36 35 32 21 10 3 1 3 4 7 5 1 359 358 355 349 346 336 332 326 316 313 311 307 303 278 257 286 320 317 308 266 246 246 239 231
195 194 206 93 63 53 46 38 33 27 16 6 5 1 358 360 1 2 359 358 354 350 347 343 338 325 322 310 304 301 295 290 293 292 298 297 298 304 303 258 241 235 234